Notices

What's New in latest Release from April 7th, 2021:

- Updated Glossary, including Speed of Maximum Gust, and Total Hourly Precipitation

- Updated national and regional climate services offices contacts and prices information

- Addition of station inventory lists for 1981-2010, 1971-2000, and 1961-1990 Normals.

If you haven't already, please take our survey and provide feedback about our website: https://eccc.sondage-survey.ca/f/LanguageSelection.aspx?s=442ca660-fcf1-47c0-95a9-59707d6fd709

Hourly Data Report for November 25, 2016

VICTORIA UNIVERSITY CS
BRITISH COLUMBIA

48°27'25.200" N
123°18'16.600" W
60.10 m
1018598
71783
WYJ

Download Data

Hourly Data (November 2016)
Hourly Data Report for November 25, 2016
TIME
LST
Temp Definition
°C
Dew Point Definition
°C
Rel Hum Definition
%
Precip. Amount Definition
mm

Wind Dir Definition
10's deg

Wind Spd Definition
km/h
Visibility Definition
km
Stn Press Definition
kPa
Hmdx Definition


Wind Chill Definition


Weather Definition


00:00 6.0 4.3 89 0.3 22 9   99.61     LegendNANA
01:00 5.6 4.1 90 0.0 25 9   99.85     LegendNANA
02:00 4.9 3.4 90 0.0 23 6   100.05     LegendNANA
03:00 4.1 2.9 92 0.0 29 5   100.19     LegendNANA
04:00 4.3 3.1 92 0.0 6 3   100.28     LegendNANA
05:00 2.6 2.0 96 0.0 8 1   100.38     LegendNANA
06:00 2.8 2.3 97 0.0   0   100.42     LegendNANA
07:00 2.5 2.1 97 0.0 30 2   100.49     LegendNANA
08:00 3.3 3.0 98 0.0 33 3   100.52     LegendNANA
09:00 5.8 5.2 96 0.0 33 5   100.57     LegendNANA
10:00 7.2 6.0 92 0.0 36 5   100.56     LegendNANA
11:00 9.1 5.7 79 0.0 10 2   100.55     LegendNANA
12:00 9.2 4.9 75 0.0 7 5   100.51     LegendNANA
13:00 8.8 5.3 79 0.0 0 1   100.50     LegendNANA
14:00 8.7 5.0 77 0.0 6 2   100.47     LegendNANA
15:00 8.1 5.1 81 0.0 35 7   100.48     LegendNANA
16:00 8.1 6.1 87 0.0 1 6   100.45     LegendNANA
17:00 8.0 6.1 88 0.0 36 4   100.42     LegendNANA
18:00 7.9 6.1 89 0.0 4 2   100.40     LegendNANA
19:00 7.9 5.4 84 0.0 6 2   100.32     LegendNANA
20:00 8.3 5.5 83 0.0 7 3   100.25     LegendNANA
21:00 7.5 6.2 92 0.2 1 4   100.18     LegendNANA
22:00 7.1 6.5 96 1.7 2 4   100.09     LegendNANA
23:00 7.1 6.5 96 1.0 2 11   99.99     LegendNANA

Notes on Data Quality.

Legend

  • E = Estimated
  • M = Missing
  • NA = Not Available*
  • [empty] = Indicates an unobserved value
Date modified: